Theta_e
315 315 315 315 315 315 315 314 313 311 310 310 308 312 313 307 305 316 323 324 319 309 303 308 303 300 302 307 306 307 307 306 308 307 309 307 309 308 307 306 305 306 304 305 303 306 303 303 301 303 302 304 306 307 308 308 308 306 300 306 304 315 304 299 298 302 304 306 308 311 312 310 306 308 308 306 303 307 303 301 304 301 303 299 298 296 302
315 315 315 315 315 314 314 314 313 312 310 308 309 310 308 308 308 314 324 324 320 308 300 300 301 302 305 305 305 308 307 307 306 307 308 306 308 306 307 307 307 304 307 304 302 305 301 304 303 302 304 302 308 308 308 309 304 305 304 303 305 300 303 300 294 293 294 298 303 304 309 309 306 305 308 310 311 310 310 309 307 299 303 303 297 291 299
314 314 314 314 314 314 314 314 313 313 312 311 309 307 309 309 314 315 318 323 317 305 307 304 303 303 303 303 303 304 306 309 309 309 307 309 307 307 306 307 307 305 307 305 305 306 304 303 305 305 304 302 309 307 307 307 307 311 312 323 310 304 304 300 293 289 287 289 291 293 295 300 304 310 311 309 307 309 305 300 301 291 302 304 298 298 305
314 314 314 314 314 314 314 314 314 313 312 310 310 309 308 308 305 314 318 316 315 312 313 309 306 304 304 303 305 306 304 310 311 310 309 310 309 307 307 308 308 306 306 303 303 303 308 305 309 306 304 305 306 308 308 308 307 318 324 313 308 305 307 302 299 293 291 294 299 305 306 303 297 303 304 306 308 308 310 306 299 293 299 300 303 304 303
313 314 314 314 314 314 314 314 313 313 312 311 308 310 309 311 308 311 305 312 311 309 310 308 308 303 306 301 306 303 305 309 311 312 306 309 308 307 306 307 305 304 304 303 302 303 303 306 304 306 306 306 305 307 312 308 320 328 313 311 304 302 299 302 302 301 299 300 299 302 305 300 302 300 303 304 305 309 306 300 299 305 299 292 307 309 307
313 313 313 314 314 314 315 314 313 312 311 310 311 308 313 302 309 312 315 304 301 306 308 311 310 311 307 303 306 303 304 306 305 309 310 310 309 304 310 307 307 306 304 304 301 303 302 304 302 308 305 306 306 304 307 306 318 314 307 309 304 301 297 300 300 299 301 301 301 303 303 303 303 306 303 306 307 308 305 305 308 307 299 295 307 310 308
314 314 313 313 314 315 315 315 313 311 309 308 312 307 312 312 314 313 316 308 310 309 310 312 311 310 310 310 307 303 303 303 307 307 308 307 309 306 301 304 306 307 307 306 307 307 303 300 303 307 308 303 305 303 304 307 309 308 310 305 309 303 299 303 301 300 301 301 301 303 301 301 300 303 303 303 303 302 302 305 309 308 306 308 309 311 311
314 314 314 313 314 315 316 315 313 311 308 311 312 312 307 310 309 309 314 312 311 312 312 311 310 307 312 307 308 308 306 304 306 309 308 307 304 309 304 305 306 307 307 308 305 308 308 304 304 314 309 306 309 307 307 302 305 307 305 307 308 302 301 308 302 299 299 301 302 302 301 300 299 300 300 303 303 304 305 304 303 311 310 311 309 309 310
313 313 314 313 314 315 316 315 313 310 308 312 316 315 317 315 318 316 309 306 310 312 311 309 308 306 308 306 308 308 308 307 310 309 312 310 307 310 306 307 307 308 307 307 305 307 309 311 307 309 310 302 308 304 309 307 304 306 306 305 307 305 302 305 303 295 296 300 299 300 301 300 299 299 303 303 304 303 304 303 308 307 306 308 309 307 309
313 313 313 313 314 315 316 316 315 310 309 312 313 312 317 318 320 318 313 305 311 307 309 309 307 303 308 309 309 308 308 310 311 306 312 312 312 311 311 310 306 308 306 305 307 309 309 308 308 308 308 311 309 309 308 307 307 305 305 308 303 304 303 298 298 295 296 300 301 300 301 298 295 301 303 307 304 305 306 306 311 310 311 306 303 305 316
313 313 314 313 314 315 316 316 315 311 311 308 308 309 312 313 312 313 313 305 307 307 306 306 306 309 309 311 309 311 309 310 310 305 308 311 312 314 313 311 308 306 307 309 313 313 313 312 312 311 308 307 308 309 309 310 308 309 307 308 305 304 304 300 303 294 295 299 300 300 295 289 290 305 314 308 306 307 303 304 305 316 313 309 312 314 319
313 313 314 313 314 314 315 316 316 314 311 311 311 308 313 317 315 315 311 304 305 310 308 307 308 310 310 311 310 309 308 309 309 311 308 310 311 314 313 312 310 309 313 316 315 315 315 315 313 312 311 309 308 308 309 308 307 312 308 306 307 305 303 300 302 295 295 298 298 293 287 291 306 309 310 310 308 308 306 307 307 313 317 320 320 319 320
313 314 314 313 313 314 315 316 316 314 312 312 310 307 313 317 314 313 311 307 304 306 304 306 311 311 312 311 310 309 310 310 311 311 310 311 311 312 313 313 310 311 318 316 314 312 309 306 307 309 307 308 308 307 306 306 307 309 307 307 303 301 299 305 300 299 299 295 294 287 289 305 310 309 312 313 308 306 308 307 314 317 317 320 318 321 323
313 314 314 313 313 314 315 316 316 315 314 311 309 309 312 314 313 313 312 307 305 310 310 308 310 309 309 309 309 309 310 310 311 312 308 311 309 310 313 315 315 317 317 316 313 310 307 305 301 302 302 304 305 303 305 306 308 307 306 307 307 304 304 301 296 301 291 293 292 292 301 300 306 310 311 307 305 305 301 298 308 316 317 318 320 321 322
314 314 314 314 313 314 315 315 316 316 315 311 310 309 312 316 317 314 317 311 303 307 310 302 306 308 309 309 310 308 307 308 308 307 310 312 311 312 312 314 317 317 317 314 311 310 307 305 300 297 301 298 293 298 304 302 307 307 307 306 307 310 301 304 296 298 298 295 290 291 291 289 298 308 310 311 311 310 308 307 306 316 317 321 322 321 320
313 314 314 313 313 314 314 316 316 316 314 312 310 310 313 317 321 322 317 311 307 300 304 310 311 309 307 307 310 308 307 307 307 308 307 309 310 312 315 315 315 316 315 313 317 311 309 302 298 298 295 298 304 300 299 307 301 305 306 307 311 308 306 303 298 296 297 295 290 289 289 294 305 309 313 313 313 312 311 303 302 312 318 321 322 320 321
313 313 314 313 313 313 314 315 316 315 314 313 308 309 310 318 317 317 313 312 309 304 312 313 312 310 308 308 310 309 310 307 307 305 303 306 308 311 315 317 316 315 314 309 314 307 303 303 303 301 302 305 300 299 304 300 302 303 308 310 309 309 304 302 300 298 296 294 291 289 297 298 307 313 310 311 313 314 305 292 296 311 317 321 323 321 321
313 313 314 313 313 314 315 316 316 314 314 313 310 308 310 316 318 319 316 310 305 305 310 312 310 308 308 310 308 311 313 313 316 316 308 308 309 312 311 314 310 314 315 306 309 304 302 302 298 298 295 307 306 304 291 302 298 299 300 303 301 303 303 300 296 295 298 298 293 294 297 312 316 312 314 312 316 309 294 289 302 315 318 318 322 322 322
314 314 314 313 313 314 315 315 315 314 313 312 312 310 311 317 322 323 315 310 308 304 312 315 316 313 315 317 313 314 314 312 312 309 306 305 312 312 313 312 314 307 312 305 308 304 300 302 306 301 297 300 306 296 306 298 299 304 304 300 299 299 301 302 301 297 296 296 292 293 300 308 314 314 316 316 311 295 296 307 315 320 320 322 324 323 325
314 314 314 313 314 315 315 315 314 313 313 312 310 307 310 314 316 319 315 308 310 307 310 312 314 311 315 311 310 310 311 312 312 308 307 303 314 313 308 304 313 312 309 311 302 307 301 298 300 305 298 297 302 308 300 305 310 305 303 304 299 302 297 295 296 300 301 299 294 291 287 307 318 318 315 317 306 304 312 315 317 321 321 322 323 324 324
314 314 313 313 314 315 315 315 314 313 313 313 312 308 308 317 319 321 321 315 308 304 307 315 314 314 313 313 314 313 311 308 310 307 310 310 315 313 297 304 308 310 308 308 301 302 304 300 302 302 305 302 310 304 299 303 305 309 306 306 305 311 298 297 299 304 294 296 295 294 302 312 321 315 306 315 316 316 319 317 314 321 322 322 321 324 325
314 313 313 313 313 314 315 315 314 313 313 312 312 310 307 316 324 323 324 322 312 307 310 314 316 315 316 317 317 316 314 314 315 316 310 308 316 310 310 312 311 312 315 313 309 307 309 308 309 303 300 302 310 302 308 296 295 305 311 306 297 310 304 308 296 307 302 300 303 306 311 312 316 320 316 320 323 325 324 320 317 318 321 324 322 323 324
313 313 313 313 313 314 315 314 313 313 313 313 312 309 307 311 314 318 318 313 315 315 316 315 316 317 319 320 322 322 320 320 318 317 316 310 307 314 310 311 310 320 318 320 317 313 312 310 306 309 305 307 307 302 303 300 298 305 301 306 305 315 314 314 310 307 313 313 311 315 315 316 317 318 319 319 319 317 321 320 318 322 323 324 323 326 325
312 313 313 314 314 314 314 313 313 313 313 313 311 308 308 311 313 313 315 315 310 306 311 315 311 309 312 312 317 321 321 319 319 319 320 320 306 308 312 314 313 313 319 323 324 316 314 313 311 312 303 307 308 301 300 298 300 306 307 303 310 315 315 312 304 309 300 295 315 313 314 315 316 317 322 325 325 324 324 323 321 324 325 325 325 326 326
313 313 314 314 315 314 314 314 313 313 314 312 311 312 311 310 314 315 310 304 307 305 301 306 310 315 318 320 319 319 319 320 321 319 317 316 314 307 306 314 319 313 312 316 324 319 318 311 311 309 303 310 311 301 311 302 301 310 302 303 306 306 312 308 307 308 301 302 312 314 318 319 320 318 317 319 324 327 327 327 326 328 326 325 325 327 327
314 314 314 315 315 315 314 314 313 313 313 313 312 308 307 309 314 316 314 314 311 308 302 301 307 315 318 318 315 318 320 319 319 318 317 317 316 315 312 314 313 319 318 316 316 314 313 312 313 310 305 307 316 305 305 308 308 311 304 304 310 311 312 302 309 304 310 314 313 315 318 319 320 321 322 322 320 322 324 324 325 329 328 327 327 328 328
314 315 315 314 314 314 314 314 314 313 312 313 312 312 310 311 314 313 311 311 307 303 305 302 307 313 316 311 315 316 317 316 317 316 315 316 315 315 314 313 311 315 312 312 315 313 315 311 310 305 310 309 317 311 313 311 310 307 305 312 314 309 306 309 307 304 302 306 312 314 306 309 313 318 321 323 325 323 322 324 325 329 328 327 327 328 329
314 314 315 315 314 314 314 314 313 312 312 313 313 312 313 311 312 315 316 315 309 302 303 303 303 308 314 310 314 315 317 317 316 315 315 315 315 314 313 312 313 310 313 312 308 309 309 306 305 313 313 311 309 308 314 312 311 308 307 310 314 308 317 309 307 306 305 313 317 320 316 315 319 319 323 324 324 327 327 326 326 327 329 329 327 326 325
314 315 315 315 314 314 313 313 312 312 313 312 311 310 311 313 314 314 314 318 317 309 307 306 308 307 302 309 317 315 317 318 315 314 314 314 314 313 312 312 312 313 311 311 310 311 309 309 315 310 310 319 311 306 310 303 303 300 304 316 316 319 319 315 313 314 315 319 319 319 318 316 320 323 323 323 324 326 327 327 327 327 327 329 328 327 324
313 313 314 314 314 313 312 312 312 312 312 311 309 306 305 309 314 314 315 315 317 313 304 301 299 304 314 313 311 313 313 316 316 316 315 314 313 313 312 312 313 313 314 311 312 305 308 309 311 313 315 322 309 311 304 305 302 304 315 316 318 318 319 321 320 316 315 322 322 322 321 321 322 323 324 324 326 325 324 323 325 325 326 329 327 327 328
312 312 312 312 311 312 312 312 312 312 311 309 306 301 302 302 308 318 315 319 322 314 308 307 302 309 308 313 313 311 313 313 311 310 311 313 313 313 314 313 315 315 310 310 310 309 314 309 312 314 319 318 315 309 305 303 300 303 313 318 319 319 320 321 322 321 321 322 321 321 321 321 322 322 322 323 324 325 324 325 326 330 327 328 327 324 324
312 312 312 312 312 311 312 311 312 311 310 307 303 303 307 308 311 313 313 314 318 313 306 301 302 303 304 309 314 317 316 316 316 313 312 313 312 313 314 313 314 315 313 311 312 312 309 314 312 314 312 323 316 311 308 304 300 304 317 320 322 320 320 321 322 324 324 324 320 316 316 318 321 319 318 323 324 324 324 323 325 325 327 326 325 325 325
312 312 312 312 312 311 311 311 311 310 308 310 312 311 311 311 311 311 312 313 315 312 312 305 300 302 301 306 311 313 314 318 314 319 312 314 313 315 312 315 315 315 321 312 309 305 314 312 317 313 316 322 315 313 308 303 305 315 317 321 323 323 321 322 322 323 324 325 322 314 312 316 318 323 324 323 324 324 323 323 324 324 323 322 321 318 316
311 311 311 311 311 311 311 311 311 311 310 308 304 307 311 311 311 311 313 314 312 315 313 306 301 300 301 311 304 314 314 310 313 312 309 318 324 313 314 317 317 310 315 308 313 312 315 316 311 313 316 314 317 310 303 306 310 312 318 321 323 323 322 320 320 321 322 324 324 322 321 323 324 324 323 322 321 322 323 323 322 321 320 320 318 316 316
312 311 311 311 311 311 311 311 309 308 306 308 309 312 316 313 311 313 312 313 307 305 306 306 305 300 299 303 302 311 318 311 310 315 309 316 323 316 318 310 316 306 313 318 311 311 309 310 316 310 305 314 310 304 305 308 311 313 319 318 320 321 321 318 319 322 322 321 321 322 323 322 321 320 320 320 320 320 320 320 320 319 317 317 316 316 316
312 312 312 312 311 311 310 310 308 306 305 305 309 319 318 316 316 317 316 318 314 306 305 306 306 301 302 297 297 313 314 309 316 317 317 319 316 321 319 315 307 311 324 313 307 312 309 317 313 304 311 305 303 305 309 314 316 314 315 318 319 320 319 320 321 322 320 321 321 322 322 322 320 319 319 319 320 320 319 319 319 319 317 317 317 318 318
311 311 312 311 309 307 303 304 310 308 309 317 318 320 319 318 318 318 316 315 318 318 307 304 301 301 303 303 307 314 312 303 315 311 314 312 312 318 317 312 306 313 309 310 309 306 313 315 313 306 305 302 306 312 314 316 319 318 316 319 320 322 323 324 324 322 320 321 320 320 320 319 319 319 318 318 318 319 318 317 318 317 316 317 318 318 319
311 311 309 307 305 302 302 306 308 313 319 316 319 315 313 315 308 309 310 307 312 313 308 307 300 303 307 303 299 314 309 308 314 308 311 311 310 310 315 311 309 310 302 305 309 318 314 311 307 304 305 309 312 319 320 318 320 322 320 320 321 322 322 324 324 320 317 316 316 316 318 318 317 317 318 317 318 317 317 319 319 319 318 319 319 320 321
310 309 306 306 304 302 305 311 318 320 316 317 316 311 308 310 307 304 304 307 309 304 308 305 301 305 303 301 303 311 307 304 304 309 304 315 309 305 311 303 312 308 298 303 308 317 305 306 307 305 303 308 309 313 319 321 322 323 323 322 323 323 323 324 324 320 316 315 316 318 318 317 316 316 318 318 318 318 318 318 318 319 319 320 320 320 320
306 303 303 303 302 306 317 320 319 316 313 308 310 308 303 309 301 297 308 299 299 305 307 301 306 306 307 303 303 304 313 306 301 301 308 310 315 305 310 308 311 305 298 299 306 313 304 299 304 303 301 306 309 316 318 320 320 322 324 324 325 325 326 326 325 326 324 324 323 323 324 322 322 319 318 318 316 315 315 317 319 320 320 320 320 319 319
305 305 304 303 309 310 318 320 318 315 310 306 305 306 304 297 305 307 306 300 300 302 310 307 309 307 309 309 308 304 320 321 319 317 313 305 318 314 307 302 310 301 299 299 311 312 309 303 301 300 302 311 312 316 317 317 319 323 324 324 326 328 328 328 328 325 322 322 321 320 322 323 322 321 320 318 317 315 315 316 318 319 320 320 320 320 321
307 306 308 309 309 310 311 313 312 307 307 310 300 296 298 300 306 304 305 296 298 304 306 308 304 305 306 309 309 310 313 323 320 316 311 304 313 309 304 304 304 300 296 307 312 310 306 298 299 300 307 312 318 320 318 317 318 321 323 324 326 327 327 325 323 324 324 321 321 323 324 323 322 321 320 319 317 316 315 316 317 319 319 320 321 321 321
310 311 311 308 308 308 311 301 308 306 294 294 294 290 297 293 298 297 299 305 309 306 311 315 314 317 315 318 312 314 314 321 314 313 310 305 313 312 304 302 302 292 303 314 308 303 299 298 298 302 318 320 320 323 322 319 320 321 323 325 326 327 326 325 324 324 324 323 323 324 324 324 323 322 322 320 318 317 316 317 317 318 319 320 320 321 321
311 310 306 306 302 304 306 290 307 300 294 295 291 287 294 294 297 299 297 301 308 308 313 306 312 308 306 314 312 314 314 317 317 316 310 314 309 302 302 295 298 309 312 305 303 297 299 302 303 307 317 320 324 321 322 324 322 322 322 324 325 326 326 326 325 323 324 324 323 324 325 324 324 326 323 320 318 316 316 316 318 320 320 320 320 320 321
303 303 303 300 294 300 294 288 306 297 289 293 297 296 296 293 297 299 299 309 312 305 311 311 310 311 305 314 313 313 313 307 315 307 301 308 304 305 299 297 307 308 302 297 299 300 301 299 307 312 317 318 321 323 323 324 323 320 320 322 322 324 325 323 323 322 323 322 320 322 324 324 321 321 322 319 318 318 317 317 319 320 321 321 320 320 321
301 295 294 290 287 291 292 290 294 291 299 300 299 300 299 301 302 302 311 310 310 312 309 310 311 312 308 316 306 308 314 313 305 305 308 307 300 297 307 312 309 299 298 298 295 292 297 302 309 315 318 321 322 323 325 326 325 322 319 318 319 322 324 323 323 323 323 322 322 321 324 324 321 321 321 319 319 318 318 319 320 321 322 321 321 321 321
301 304 299 295 290 293 301 291 294 299 302 302 303 304 303 305 306 307 309 311 310 312 313 316 313 313 308 307 309 310 312 311 304 307 307 300 299 305 309 302 296 297 294 294 295 297 303 311 313 316 319 319 321 322 324 324 325 323 321 320 320 321 324 324 323 323 324 324 322 321 323 324 322 323 323 321 320 319 320 321 321 323 323 322 322 322 321
292 301 302 289 289 294 293 297 303 303 305 304 305 306 307 308 306 306 310 312 314 313 311 312 310 311 309 317 313 307 306 310 304 305 307 302 306 300 295 298 297 299 300 298 298 303 307 311 316 318 321 322 323 321 322 322 324 324 324 322 320 322 324 324 323 324 325 324 323 322 323 324 322 322 322 322 322 322 322 323 323 324 325 324 323 321 321
303 298 291 291 297 299 298 301 301 298 301 303 305 305 305 305 307 309 312 317 315 314 313 311 310 309 304 310 307 304 300 308 297 296 306 302 297 293 293 291 295 294 301 303 303 308 310 313 318 321 320 321 322 323 323 322 321 321 322 323 320 322 324 324 323 325 325 325 324 323 324 323 321 321 322 323 322 323 324 325 325 325 324 323 322 321 320
295 294 299 297 297 299 302 303 301 299 301 303 304 305 307 306 308 312 316 313 316 313 313 313 314 304 306 305 296 301 301 305 303 299 301 297 298 300 298 294 296 297 301 306 309 313 317 320 320 319 321 322 322 321 322 321 323 322 323 323 322 321 324 324 324 324 326 325 324 323 325 322 321 321 322 322 323 324 325 325 325 324 323 323 322 320 319
303 300 296 303 297 297 300 296 297 297 299 301 303 304 307 306 308 309 316 313 313 312 308 304 307 306 297 297 294 291 297 310 303 299 299 298 304 300 297 296 300 304 305 308 310 315 316 321 322 322 321 322 322 322 323 324 324 325 323 322 323 323 324 324 324 325 325 325 326 326 326 323 322 322 324 325 324 324 324 324 324 323 323 322 322 320 319
293 291 294 300 302 301 301 302 302 302 302 304 304 308 308 305 310 315 318 314 311 305 303 307 305 298 293 292 299 305 310 301 300 301 298 301 307 300 302 302 304 306 309 310 312 315 320 323 321 321 320 321 321 322 323 323 323 323 325 323 322 323 323 323 324 323 319 318 319 318 315 316 321 325 325 324 323 322 321 321 322 323 322 322 322 322 321
Wind_Speed
17 17 18 18 18 18 19 19 19 21 24 12 10 7 4 6 8 16 15 5 7 4 5 3 4 7 7 10 15 15 14 12 11 12 6 3 5 4 4 5 4 6 4 3 6 2 2 5 2 5 11 10 5 9 11 8 3 1 3 6 4 5 0 2 5 4 5 2 5 4 7 7 2 5 3 2 1 2 4 4 4 3 5 3 1 0 4
17 17 17 17 17 18 18 17 17 18 18 8 9 5 4 7 8 7 7 8 5 5 5 4 6 7 10 12 14 11 12 11 10 10 10 6 3 6 3 5 5 7 3 5 6 4 2 3 7 3 6 5 5 8 11 8 2 2 1 2 4 3 3 4 3 3 5 6 2 2 8 5 3 2 3 2 2 1 3 6 2 2 0 2 1 2 3
17 16 16 17 17 17 18 17 16 16 15 12 6 4 6 7 6 8 7 5 6 7 4 7 7 7 10 11 14 13 11 9 14 6 3 3 7 4 3 6 2 6 4 7 5 4 2 2 3 2 5 3 3 6 8 6 8 5 6 4 1 1 2 2 2 1 3 3 2 4 5 2 2 2 4 7 3 5 3 2 1 1 1 1 1 1 5
17 17 16 16 16 17 18 16 16 15 14 13 5 4 4 4 5 4 2 5 3 6 7 9 8 8 9 9 10 13 13 12 12 10 9 10 9 6 8 3 6 8 2 5 4 5 1 2 0 1 0 2 3 4 9 4 4 9 8 4 3 0 1 2 1 2 5 6 5 4 3 1 2 3 9 8 9 6 6 6 3 3 2 1 3 5 3
18 17 17 16 16 17 17 17 16 15 14 12 4 4 4 5 4 5 4 5 5 7 6 9 7 8 6 5 5 12 13 11 12 12 6 9 9 6 8 9 7 7 8 6 7 5 8 3 4 1 1 2 2 7 2 6 10 7 3 4 1 1 1 2 4 5 6 7 10 12 9 9 3 6 3 3 5 12 8 5 4 5 5 3 2 4 2
18 18 17 16 15 16 18 17 17 16 16 13 3 4 3 3 4 8 7 5 3 7 7 11 10 12 9 8 8 13 14 11 10 2 6 2 7 6 1 9 10 8 7 6 5 6 10 5 4 1 3 2 4 4 8 4 8 6 2 8 2 2 2 5 6 5 6 6 8 10 11 10 5 1 6 2 1 7 8 8 5 8 6 4 5 6 4
18 18 18 17 15 16 17 18 17 19 20 13 2 3 4 5 7 7 11 7 8 9 12 16 14 13 8 3 8 12 13 13 10 8 2 7 2 6 5 7 7 8 10 6 0 1 1 4 7 3 1 6 3 3 6 9 12 3 0 5 3 2 3 2 4 3 5 8 11 11 11 6 7 3 7 8 7 6 5 5 7 12 8 7 7 10 4
17 17 17 16 15 16 17 16 16 20 24 10 4 5 4 7 8 8 9 9 9 9 9 10 11 8 8 5 7 11 11 11 11 11 7 3 6 3 9 9 10 8 7 5 3 1 2 5 3 1 4 3 1 1 1 3 4 3 4 3 3 3 4 11 3 1 4 6 8 8 9 7 10 12 13 9 5 1 3 3 5 2 1 6 7 5 3
17 16 17 16 14 15 15 14 14 18 19 5 4 6 4 7 6 5 6 8 6 8 9 8 7 7 7 5 8 8 10 12 11 10 9 8 4 2 8 5 5 7 9 5 7 8 4 3 4 3 3 6 4 2 1 5 4 5 2 3 3 3 2 3 2 3 2 6 8 7 9 11 10 7 8 8 2 2 1 2 3 3 2 4 3 1 1
17 16 17 16 13 14 14 12 13 15 17 3 5 5 7 8 7 7 4 4 5 8 8 8 6 6 6 8 10 6 10 13 12 10 8 10 8 8 11 8 5 4 8 8 6 7 6 7 9 9 5 10 5 10 5 4 2 2 3 4 4 2 1 3 3 1 1 6 10 11 9 9 7 2 4 4 4 4 3 5 6 5 4 2 1 2 5
16 16 16 15 13 14 13 11 11 12 10 7 5 6 8 8 9 6 4 6 5 6 7 7 7 6 10 9 13 14 12 11 12 9 3 8 10 13 13 14 6 4 5 5 6 7 6 7 9 9 4 3 5 8 10 13 4 1 3 1 4 2 3 1 2 2 4 6 7 7 7 6 2 5 1 3 3 3 3 4 6 2 1 0 2 4 2
15 15 16 15 13 13 12 11 9 8 7 5 5 7 7 7 6 4 4 4 7 8 6 6 8 11 15 14 12 13 16 12 10 9 12 7 9 10 12 8 10 3 12 11 9 13 13 13 13 10 12 8 4 6 7 9 4 8 3 2 0 1 4 1 0 1 2 5 7 7 3 3 2 4 4 5 6 7 7 4 7 11 11 14 14 14 10
14 15 15 14 13 12 11 12 8 6 6 6 6 6 6 8 6 4 4 5 6 6 7 9 12 14 15 14 13 12 14 17 8 10 12 7 7 10 10 4 7 8 11 17 8 10 8 7 8 5 5 12 10 10 13 11 8 9 8 9 5 4 3 0 1 3 2 2 1 1 2 1 4 4 3 5 5 4 1 5 11 7 6 9 7 7 8
15 15 14 14 13 13 12 12 10 6 5 5 6 7 8 7 5 4 3 4 6 6 9 11 9 10 17 14 13 11 12 15 16 10 9 4 8 10 11 7 7 9 7 9 6 6 4 6 4 4 5 4 3 2 7 11 7 6 6 4 7 6 5 4 1 2 1 2 2 6 5 7 3 2 1 3 3 4 5 5 4 4 3 6 8 7 6
15 14 14 14 13 13 12 12 10 6 6 6 6 8 7 7 5 6 1 2 6 7 5 4 6 12 15 13 12 9 7 8 10 8 10 8 9 7 9 7 5 6 9 4 3 4 2 2 2 3 2 1 1 3 4 3 3 6 8 6 6 6 3 2 2 1 2 1 3 4 2 3 2 3 3 5 8 11 7 7 2 5 5 5 7 6 5
14 14 14 13 13 12 12 12 10 7 7 7 7 7 7 8 7 3 1 2 4 5 4 3 9 11 9 10 12 11 6 5 7 9 8 8 13 16 13 10 5 6 6 3 1 2 2 1 3 2 1 0 1 3 3 1 3 5 8 4 1 5 7 10 9 3 2 2 0 1 3 2 3 2 2 6 9 8 4 7 3 3 3 7 6 5 4
13 14 14 13 12 11 11 11 10 6 6 5 6 7 7 6 6 4 3 2 4 10 12 15 12 11 8 7 6 5 4 3 5 5 4 6 11 13 13 15 7 5 3 6 1 1 1 2 3 3 3 2 2 3 4 4 2 3 4 3 2 4 5 4 4 2 2 2 1 2 1 0 3 5 5 7 5 6 4 2 1 3 1 5 5 5 4
13 14 13 13 11 11 11 11 8 6 6 3 5 7 7 7 6 4 2 4 4 7 9 10 10 7 5 7 8 7 5 3 2 1 2 4 7 6 11 9 9 11 4 4 3 3 2 2 3 1 4 3 4 4 5 1 3 3 2 1 2 3 1 3 1 1 1 3 2 1 1 0 3 5 4 4 3 2 3 2 4 3 2 3 5 4 3
14 13 12 11 11 11 11 8 5 5 7 5 6 8 8 5 4 3 1 3 4 7 7 13 13 12 10 11 7 8 8 10 5 2 4 6 2 9 12 9 6 4 2 4 2 3 3 2 1 2 3 4 4 5 0 3 4 3 2 1 1 1 1 1 3 0 1 1 4 4 2 2 2 5 8 5 3 1 3 5 4 4 1 3 5 4 3
13 12 11 10 10 10 8 5 4 5 7 4 4 6 8 10 8 5 3 5 4 9 10 11 10 14 10 9 8 8 10 8 7 6 2 3 3 10 8 5 5 7 5 3 4 2 3 4 3 1 6 5 4 2 4 2 1 1 2 4 3 1 1 1 1 1 1 0 4 4 0 1 1 1 5 4 2 4 3 3 5 3 8 6 3 3 3
11 10 10 10 9 10 9 7 5 6 7 6 5 6 6 4 6 6 4 3 4 7 8 4 3 9 11 12 12 12 10 8 7 5 7 4 3 2 1 2 5 3 2 4 4 1 2 2 3 3 2 2 1 2 2 2 1 1 4 1 1 2 1 1 1 2 1 0 1 1 3 3 2 3 3 0 3 5 1 1 2 4 5 4 4 3 2
10 9 9 9 9 10 9 7 5 6 7 7 4 5 7 4 4 5 2 2 5 8 7 14 13 13 15 15 14 14 13 13 12 8 6 6 2 3 4 5 5 2 2 3 2 3 5 5 4 3 3 3 1 2 1 5 3 1 0 6 1 1 2 2 2 1 1 1 2 5 5 7 3 3 3 4 3 3 1 3 7 5 1 1 5 4 2
10 9 8 9 9 9 6 5 4 6 7 7 5 5 6 7 6 9 7 4 4 7 10 12 12 12 13 15 16 15 14 11 11 9 7 4 5 2 4 3 4 2 3 2 1 1 2 0 2 2 4 2 1 3 6 4 3 3 2 4 3 3 4 3 2 2 0 1 3 5 1 2 2 7 5 4 2 3 8 6 5 5 5 4 5 4 4
9 9 9 9 10 9 6 4 5 6 6 6 4 5 6 6 7 7 4 3 4 7 8 9 6 6 7 11 11 10 12 12 11 9 5 3 4 3 3 3 4 6 1 3 1 3 2 1 2 1 3 4 3 3 2 3 3 4 1 3 2 3 2 2 2 1 1 2 3 5 4 6 5 7 6 7 6 6 5 4 4 7 4 3 2 6 5
10 10 10 10 10 8 7 5 4 5 4 4 6 6 6 7 5 4 4 4 3 4 6 7 8 9 12 12 10 12 8 6 11 13 9 5 4 5 6 5 3 3 4 5 2 3 1 2 1 1 4 3 4 3 1 3 2 1 3 3 2 1 5 2 3 1 5 4 2 3 5 5 7 7 6 5 4 4 4 1 3 7 6 5 4 4 5
10 10 10 10 8 6 5 5 5 6 4 4 4 5 5 6 6 6 5 5 5 4 5 6 6 9 9 13 11 10 16 15 13 13 12 8 8 8 8 5 9 4 3 3 4 3 3 3 2 3 3 3 1 1 2 2 2 2 2 3 1 1 2 1 1 2 0 1 2 4 10 8 7 7 6 5 4 2 3 4 3 6 6 5 3 3 5
11 11 11 9 8 5 4 6 7 6 5 5 6 5 6 6 6 5 4 3 4 4 6 7 7 10 12 17 15 13 14 11 10 2 4 9 11 8 7 6 7 3 4 3 2 4 2 3 3 5 3 3 0 2 2 2 1 1 3 0 1 3 0 3 1 1 1 1 1 1 1 2 3 5 4 4 3 4 2 1 3 5 4 4 6 4 4
10 11 12 10 8 8 7 6 6 7 7 6 7 7 6 7 7 7 6 5 4 4 6 7 8 10 13 17 14 11 10 8 7 8 7 7 9 7 7 7 5 5 3 2 3 3 3 4 5 3 3 4 4 3 1 3 3 3 3 3 3 1 1 2 1 1 2 3 2 1 7 5 3 4 6 7 5 7 7 5 4 4 3 2 4 6 5
8 9 9 7 6 5 4 4 5 6 7 6 6 7 8 8 9 8 8 5 3 5 6 8 8 8 5 6 12 13 13 11 9 10 11 12 12 10 8 7 5 4 4 4 3 3 3 4 3 3 3 0 2 2 2 2 2 7 4 2 2 2 3 3 6 5 5 3 6 6 6 5 4 7 7 6 6 4 5 4 4 3 2 1 1 4 8
4 5 4 2 2 3 5 5 6 7 7 5 4 4 5 4 7 8 7 6 4 3 4 6 6 4 6 7 9 10 11 12 10 10 11 8 8 8 7 5 5 5 3 3 2 5 4 4 4 4 5 0 2 2 3 1 4 4 3 5 4 3 3 5 5 5 3 3 5 6 9 8 7 8 7 5 5 6 6 6 4 1 2 0 0 4 5
4 4 4 3 3 4 5 6 6 6 7 4 3 2 3 4 4 3 6 5 3 3 4 4 8 8 8 7 9 12 13 11 9 10 13 11 7 6 5 5 4 5 4 5 4 4 2 3 2 2 2 2 2 3 2 2 3 3 3 7 5 2 2 4 8 9 8 4 5 6 8 9 8 8 7 6 6 6 4 3 4 5 3 3 7 7 8
5 5 4 5 5 6 7 7 7 6 5 5 6 4 3 2 2 5 7 6 5 3 4 5 6 4 4 5 4 5 12 14 12 9 7 6 6 6 4 7 4 6 4 4 4 3 4 2 3 2 3 1 1 2 2 3 5 2 0 2 4 7 8 7 6 5 6 5 6 7 6 4 4 7 5 6 6 5 6 5 4 5 7 7 6 6 5
5 6 6 6 8 8 8 8 8 6 6 8 16 20 21 20 18 15 9 6 3 2 2 4 5 4 4 4 9 13 11 3 4 1 4 5 4 4 4 4 4 3 6 4 2 3 2 4 2 2 2 3 1 0 2 4 4 3 3 3 1 3 4 7 6 6 5 2 3 4 5 7 7 9 9 8 6 5 6 7 7 5 6 7 8 7 8
6 6 7 8 9 9 9 9 9 9 9 7 8 8 10 17 14 15 7 2 3 2 2 4 4 5 6 6 7 4 6 3 2 3 3 3 1 2 1 0 1 3 3 5 2 2 2 1 2 1 2 2 1 2 4 6 5 5 3 3 2 2 3 5 5 5 3 3 2 7 12 10 10 9 10 9 9 6 6 6 6 8 7 7 7 8 9
8 9 8 10 10 10 11 9 6 5 6 7 8 9 9 12 13 10 9 4 3 4 4 5 3 5 5 4 4 3 4 3 2 2 2 1 2 2 1 3 1 1 2 3 3 2 2 3 2 3 5 2 2 4 5 4 4 3 3 4 4 3 3 4 3 4 5 6 10 9 11 13 12 9 9 9 9 8 8 7 5 7 9 8 8 7 8
8 9 10 11 12 9 7 7 6 5 5 6 5 1 7 12 11 7 6 4 3 2 3 3 2 6 5 7 5 1 4 5 2 2 2 2 3 3 2 0 1 2 1 1 3 2 3 5 1 4 2 3 6 4 3 3 4 7 8 6 5 5 4 4 6 6 6 7 10 10 11 9 11 10 8 9 10 8 9 9 7 6 8 8 8 7 7
9 10 11 10 6 4 5 6 4 7 3 3 4 6 11 10 4 2 3 3 3 2 4 4 6 7 6 5 3 2 3 4 1 2 0 0 1 1 1 1 2 0 3 2 3 4 2 2 1 4 4 6 4 5 7 3 2 3 6 6 5 4 3 3 7 8 6 7 10 9 9 10 9 8 9 8 8 10 9 9 9 8 8 9 8 8 8
9 9 6 5 4 4 4 5 5 6 8 2 2 3 1 3 4 4 4 4 4 5 5 4 8 7 3 5 7 2 3 2 3 1 1 2 1 1 0 1 1 1 2 2 3 3 3 1 2 5 6 5 5 3 4 6 5 5 5 6 6 6 5 4 7 10 9 6 5 7 8 10 8 7 9 9 8 9 7 7 8 7 7 8 8 9 9
7 5 5 5 3 3 2 2 5 7 9 3 3 2 3 3 3 3 5 4 3 6 5 7 9 6 7 8 9 5 6 5 4 3 2 2 0 1 2 1 1 1 1 2 2 4 2 1 2 4 8 6 7 7 5 6 5 5 6 6 6 6 5 5 7 11 12 11 10 7 7 12 11 9 8 8 8 8 8 9 9 8 8 8 8 9 10
4 5 3 4 6 3 4 4 1 3 3 4 3 3 2 3 4 3 4 2 3 4 4 7 7 7 10 10 7 6 6 7 5 3 1 2 0 1 2 1 1 2 2 3 2 4 2 3 3 4 8 6 6 5 5 5 6 5 6 6 6 5 5 6 6 5 7 5 6 5 8 12 11 11 11 11 11 10 9 9 9 8 9 9 9 10 10
4 4 4 4 4 4 3 3 3 3 3 3 2 3 2 2 4 3 2 5 5 3 5 5 3 5 7 8 7 8 1 2 1 2 1 1 1 1 1 1 2 2 3 3 1 1 1 2 4 6 5 4 7 7 9 8 7 6 7 7 6 4 5 5 6 9 10 7 6 5 6 11 11 11 12 13 11 10 10 11 11 9 10 11 11 9 8
3 3 4 5 6 6 5 3 2 3 3 1 1 2 3 3 2 3 3 3 5 3 4 4 6 6 5 8 6 4 2 1 2 1 1 1 2 1 1 2 3 2 2 1 2 2 1 3 4 6 4 5 5 6 7 8 8 9 9 9 7 6 7 8 8 7 9 10 7 6 5 7 10 10 12 13 11 11 11 11 11 11 11 10 9 9 8
12 9 6 4 3 3 2 2 3 2 1 2 1 2 2 2 4 5 4 3 2 3 1 3 2 2 3 3 4 3 2 1 1 1 1 1 1 1 1 1 1 2 2 1 1 2 4 4 4 5 2 1 1 1 4 8 8 8 10 8 8 8 8 8 8 8 7 9 9 8 7 8 8 9 11 13 13 12 10 10 12 11 10 10 9 9 7
6 5 4 3 4 2 1 1 2 2 1 1 3 2 4 6 5 4 5 3 2 2 1 2 2 3 2 3 2 1 2 1 1 1 1 1 1 1 1 1 4 0 2 2 1 5 5 4 5 4 3 2 1 2 0 2 6 7 9 10 10 9 9 8 7 6 5 5 6 6 8 7 6 6 10 13 16 16 12 10 10 10 11 11 10 8 9
4 3 3 1 1 0 1 1 2 2 3 4 4 5 5 6 6 6 5 2 1 2 1 4 3 1 2 0 1 3 1 1 3 2 2 2 1 1 3 2 1 1 2 4 3 3 3 5 3 4 4 4 3 2 2 2 6 10 10 9 9 8 10 10 9 8 8 9 10 9 8 8 7 6 11 13 14 15 15 13 12 11 11 11 11 10 9
3 1 1 1 2 2 1 1 1 2 4 4 5 5 7 7 6 5 0 2 2 2 2 2 3 0 3 2 0 1 3 1 3 2 2 2 2 3 1 1 1 3 3 3 5 4 5 4 2 2 3 3 2 2 2 2 5 7 9 9 8 8 10 10 8 8 8 8 7 8 10 9 10 8 11 14 14 14 14 13 13 12 11 11 11 11 10
4 2 1 1 2 2 3 2 4 4 3 4 7 7 7 6 5 6 4 3 5 1 0 1 3 2 3 3 1 1 2 1 1 2 3 2 2 1 0 2 4 2 3 5 4 4 1 1 1 2 2 3 3 2 2 2 2 4 6 7 7 7 10 10 9 8 7 7 7 8 8 8 9 7 10 13 12 13 14 14 14 13 11 11 10 11 11
2 1 0 2 3 2 5 7 5 7 7 7 5 6 6 4 4 2 5 5 3 3 3 2 1 2 2 1 1 2 1 1 1 2 2 1 2 2 0 3 3 2 2 4 5 3 2 3 1 2 2 1 1 3 3 2 1 1 2 6 8 7 10 11 9 8 8 8 8 9 9 8 9 9 11 14 13 13 13 13 14 12 10 10 10 11 11
3 1 1 1 3 3 5 6 8 9 8 7 7 6 5 5 2 3 2 2 2 0 2 3 3 2 1 1 3 2 2 1 2 1 2 2 2 3 2 3 4 4 4 6 2 2 3 3 2 2 3 2 1 1 2 3 4 3 3 4 9 8 10 10 9 8 9 8 8 9 9 8 8 8 9 11 13 12 12 13 13 11 11 12 12 11 11
1 1 2 3 4 6 6 6 6 7 6 3 5 5 7 7 5 4 2 1 1 1 2 2 6 4 2 2 2 3 3 3 2 1 3 5 3 2 3 6 3 4 2 4 3 1 1 1 2 1 0 1 2 2 2 2 3 4 4 6 9 10 10 11 10 8 8 8 9 9 9 7 8 9 10 13 12 11 12 12 12 12 12 12 12 11 12
3 3 3 4 7 6 5 5 4 7 8 6 5 4 4 3 3 1 3 2 3 1 1 2 0 1 1 1 0 1 1 0 2 4 3 4 2 3 4 5 2 6 7 8 7 1 4 1 2 1 0 0 1 2 3 3 3 2 3 5 8 9 9 11 10 7 6 4 4 3 4 7 8 7 8 11 11 12 12 12 11 12 13 12 10 11 11
1 1 4 7 9 10 9 8 8 8 8 7 6 1 1 3 2 1 3 3 4 5 3 2 2 0 0 1 3 1 2 1 2 2 4 4 2 3 2 2 5 5 5 8 9 9 4 2 3 2 2 2 2 2 2 3 3 3 2 5 9 7 8 9 8 7 7 6 7 9 5 10 9 4 11 12 13 12 13 11 11 12 12 11 10 11 10
Wind_Direction
342 341 341 342 342 344 344 346 349 352 352 6 350 313 307 334 305 286 291 169 183 188 256 240 202 226 242 253 255 262 270 279 284 292 326 293 163 269 251 282 265 231 263 302 319 48 338 319 239 84 83 63 65 86 65 11 40 70 2 20 355 333 62 331 292 327 322 333 285 146 109 122 117 68 65 59 100 112 163 170 169 150 190 246 291 345 268
340 339 340 340 342 344 343 345 350 354 11 353 316 310 329 309 283 297 291 180 207 218 245 243 230 232 238 242 257 257 263 260 254 249 264 293 159 199 248 243 242 292 353 316 284 94 268 164 279 9 66 98 136 136 130 181 83 43 42 78 326 14 336 28 346 345 330 308 287 60 46 45 42 85 95 23 91 151 88 115 90 115 32 117 141 238 264
337 338 338 340 341 342 342 343 345 353 358 358 326 330 314 279 254 229 267 204 186 235 227 255 275 260 244 243 244 247 244 239 254 290 291 243 272 292 218 264 289 228 179 265 273 288 246 320 236 223 109 185 178 143 123 106 98 118 154 141 118 62 274 7 40 25 308 337 23 324 322 172 206 184 173 162 199 129 126 121 86 98 235 113 175 235 239
337 336 338 339 340 340 341 339 341 346 352 352 341 314 300 316 327 305 258 191 189 247 264 277 278 281 290 306 312 301 282 265 226 206 246 276 284 283 294 253 243 279 236 238 286 283 234 228 30 120 37 125 188 132 124 97 111 145 132 138 107 140 55 323 186 186 221 241 246 243 255 182 235 204 187 188 190 175 115 106 97 180 205 213 214 185 224
336 336 337 340 340 340 339 338 338 341 343 354 323 270 230 308 256 313 340 318 198 235 224 237 243 259 282 271 263 282 283 301 299 195 213 185 254 266 220 247 245 198 259 265 211 230 289 256 286 334 327 74 59 149 160 142 113 113 122 85 90 95 177 230 282 266 253 269 277 281 285 283 250 242 186 61 61 109 122 131 215 162 78 311 202 196 172
334 334 336 339 339 338 340 337 337 337 333 341 288 303 249 272 307 317 15 320 315 326 325 329 306 287 247 234 248 263 271 282 301 44 192 226 190 240 247 261 244 260 219 214 238 172 205 271 284 167 242 297 180 206 150 181 120 148 169 136 129 157 175 227 227 268 266 267 281 295 278 229 268 205 68 64 85 153 164 191 187 138 143 203 202 195 205
331 331 335 337 337 339 339 338 338 337 330 331 205 305 283 285 317 325 359 326 332 313 306 301 309 302 282 298 273 270 276 281 288 285 235 203 220 158 284 285 277 268 271 292 143 49 357 194 244 274 264 201 49 317 109 110 165 165 148 156 148 99 204 283 249 289 327 320 303 299 324 332 304 154 187 189 172 212 227 213 174 165 190 192 167 189 187
328 330 333 336 338 339 339 338 344 338 335 324 177 207 278 343 346 337 338 322 305 309 310 309 308 305 330 322 285 275 250 263 270 260 276 175 238 172 217 245 278 280 276 296 315 328 274 291 279 245 276 14 150 180 167 189 290 175 198 148 150 135 223 212 159 220 262 281 286 289 278 298 276 267 241 204 190 128 208 237 233 209 236 180 197 167 154
328 329 331 336 337 337 338 342 351 343 345 349 343 312 346 334 338 346 319 319 315 327 312 302 305 313 309 293 293 303 307 293 305 303 311 298 258 306 276 207 237 280 299 286 288 284 255 259 273 261 169 246 161 170 210 176 194 210 186 114 180 126 269 226 172 191 270 245 252 265 267 256 263 285 34 57 42 185 324 240 135 149 171 54 47 101 93
328 327 329 334 336 335 343 348 356 353 335 318 330 299 355 325 342 338 338 287 295 298 300 293 301 278 277 288 292 295 302 299 308 302 296 293 302 292 346 306 200 238 253 271 261 252 263 278 277 267 224 200 178 170 231 225 150 129 294 113 125 163 9 22 5 336 241 298 311 313 347 0 348 20 54 53 52 24 10 35 58 48 40 86 321 207 206
327 326 326 330 334 335 346 350 360 3 355 15 347 315 330 354 338 338 313 300 293 284 298 297 289 287 287 293 326 320 284 274 281 283 324 308 301 348 326 334 317 196 203 251 327 331 347 3 329 337 301 289 217 193 201 225 194 168 212 143 182 160 79 160 131 42 311 306 314 8 21 345 254 234 69 49 49 104 63 13 25 66 60 167 169 172 143
323 325 325 328 330 333 343 346 357 8 4 341 320 284 287 321 315 294 309 295 294 303 297 303 313 328 313 316 311 315 317 290 283 300 272 282 314 311 316 351 359 358 344 336 14 19 13 2 353 344 341 326 316 299 260 240 166 195 202 217 241 125 125 180 200 113 268 331 360 12 325 240 231 197 183 126 92 37 46 30 40 45 56 60 61 73 76
322 321 324 326 328 329 337 343 345 359 1 340 321 295 300 316 292 304 301 280 278 314 312 303 324 320 313 311 299 296 308 313 314 345 340 321 320 327 292 5 309 327 339 332 29 37 33 345 335 316 326 317 295 264 261 252 224 201 182 191 174 194 223 91 343 77 15 347 59 204 215 276 251 209 207 145 109 101 82 54 41 44 75 103 88 97 112
320 320 319 323 324 326 331 339 333 340 349 344 318 294 294 301 300 310 329 321 293 301 320 315 308 330 332 325 330 318 325 343 331 299 268 312 315 297 301 302 323 326 320 330 35 43 25 24 345 345 325 337 325 335 280 249 207 220 209 199 145 176 117 123 225 128 174 177 232 247 288 316 354 15 353 98 91 109 122 107 18 19 44 80 107 105 101
317 318 318 319 322 318 326 332 328 330 339 339 305 293 281 281 281 282 357 305 290 297 289 290 319 333 329 329 326 322 331 321 333 339 340 323 239 246 296 350 7 308 326 338 11 48 97 76 339 323 313 30 330 287 336 300 348 288 244 208 174 134 161 118 102 223 141 79 349 322 338 276 328 274 79 76 105 89 99 106 70 346 45 82 104 108 110
314 315 315 315 314 315 317 327 325 330 340 337 302 288 283 279 287 289 74 275 317 291 235 181 338 325 322 313 323 336 10 335 356 342 342 2 347 345 331 315 280 313 280 356 50 70 63 69 285 266 255 266 291 315 283 351 299 297 301 290 292 143 129 143 147 191 65 33 183 261 302 271 203 152 89 78 76 96 87 76 68 288 40 76 94 109 145
310 313 313 312 312 308 310 318 320 327 338 343 311 301 288 311 326 328 337 294 236 251 291 313 317 307 299 293 339 348 331 334 356 354 338 347 344 340 336 340 297 198 290 296 97 59 32 258 280 290 287 310 295 212 268 256 326 327 334 15 0 86 70 61 61 37 130 159 168 253 231 254 310 0 36 65 78 70 63 80 244 263 41 110 121 143 159
303 305 309 307 307 305 310 318 307 320 336 332 300 294 289 295 291 314 253 244 265 274 268 276 295 312 314 334 320 306 293 319 323 160 227 307 321 8 340 326 344 327 270 234 143 136 198 280 256 244 270 271 279 310 251 148 206 189 243 113 48 9 8 85 128 124 114 161 250 284 288 71 340 48 39 42 60 70 79 156 224 244 186 148 138 172 162
301 300 302 305 303 305 313 314 312 322 321 316 304 288 255 255 283 263 291 279 261 260 297 315 315 296 320 346 331 335 348 333 312 355 340 345 32 351 334 309 291 286 348 262 139 176 164 221 199 245 271 273 250 248 259 176 213 174 143 60 48 322 17 339 56 59 254 190 211 219 106 252 239 22 32 359 41 58 134 230 201 205 153 101 138 145 125
301 298 296 298 298 304 317 317 334 325 318 315 307 288 292 294 282 281 267 271 280 282 292 288 294 299 334 327 322 322 339 337 351 346 339 288 353 357 2 343 23 0 329 311 259 173 173 202 224 222 242 260 263 22 327 283 81 192 128 131 131 171 128 168 161 209 232 224 266 275 193 306 51 120 25 6 92 215 212 173 223 193 131 139 126 110 126
302 298 290 289 297 307 311 304 305 314 309 306 305 300 297 273 264 229 232 264 286 297 288 255 297 323 316 301 298 298 290 287 302 327 339 320 347 11 338 347 342 333 314 351 311 260 128 188 219 251 276 245 291 356 240 317 326 285 126 86 207 121 100 144 212 86 207 224 67 93 209 240 304 85 142 208 160 196 149 116 110 74 123 124 118 93 121
306 303 292 284 294 305 306 289 294 302 307 298 306 288 269 292 24 37 350 278 255 252 275 304 303 287 285 279 274 269 266 270 279 296 318 319 346 329 305 325 311 339 314 326 324 339 18 5 346 344 322 342 91 217 281 290 272 322 356 95 247 127 162 140 159 177 158 180 194 220 215 216 244 134 144 150 189 177 183 187 135 146 101 148 124 139 146
312 300 294 290 289 301 303 281 290 297 304 306 302 277 291 311 325 349 328 276 252 262 268 271 269 269 268 265 252 251 258 256 267 260 260 255 294 271 273 283 277 334 311 25 112 238 307 22 262 323 286 232 44 349 322 241 252 148 194 202 155 203 159 153 92 230 17 255 202 173 194 170 136 92 105 107 59 66 65 48 92 159 165 162 146 151 148
313 304 300 294 291 286 285 286 286 297 304 306 298 288 290 302 311 312 292 251 256 288 282 242 236 261 246 257 260 235 233 249 247 254 240 251 277 285 272 268 291 289 145 97 254 323 343 46 227 352 282 278 334 335 21 356 333 323 50 135 142 160 133 144 155 172 33 297 75 121 119 83 70 69 62 60 73 73 66 49 51 128 145 140 155 135 146
308 305 298 295 293 286 276 281 293 291 305 308 307 276 269 272 263 255 287 308 316 329 305 323 289 276 284 297 317 314 286 245 222 219 235 231 221 257 264 282 299 359 328 330 2 327 267 269 324 247 278 298 334 277 124 110 313 9 339 289 69 259 155 175 201 244 150 226 206 174 108 97 79 89 82 71 68 78 87 110 81 122 149 159 176 114 121
299 298 294 293 305 289 264 268 286 285 278 287 306 296 287 285 313 322 308 263 255 245 280 288 291 306 325 342 325 313 301 298 292 240 213 210 220 215 238 259 274 293 334 356 346 319 316 308 287 257 265 290 90 234 282 171 212 229 208 309 259 131 142 222 128 188 240 225 23 47 85 79 91 79 83 104 102 49 41 40 56 116 123 139 159 135 136
292 293 292 285 281 276 272 268 276 291 290 280 279 282 267 265 262 271 277 314 319 249 218 248 288 306 346 322 301 293 289 292 300 169 213 216 225 218 217 227 249 279 279 272 206 238 229 236 234 268 250 259 148 225 333 265 107 27 301 183 170 88 138 164 143 283 38 27 260 3 71 101 81 86 95 79 76 82 86 55 71 107 103 129 145 155 135
289 290 287 276 262 260 264 266 281 291 294 296 278 269 263 266 265 265 266 254 243 296 331 309 307 307 316 284 275 275 283 264 267 281 274 275 262 254 243 230 213 219 207 217 280 250 261 266 257 251 241 266 287 286 186 286 322 279 241 242 229 125 155 55 42 117 176 244 229 206 111 103 103 95 66 48 34 62 69 64 63 81 105 124 141 143 125
294 301 289 270 256 264 269 292 296 293 300 303 281 278 264 238 240 249 255 264 272 281 284 289 286 274 274 307 321 304 297 282 246 228 234 236 239 240 237 236 233 206 217 229 250 256 237 251 257 253 238 91 338 239 153 227 227 248 238 202 196 164 154 132 164 122 86 50 82 82 97 115 93 79 74 60 26 43 97 91 88 65 76 109 161 152 150
316 341 342 258 242 254 280 287 298 300 308 303 307 286 276 212 199 205 233 236 227 231 276 306 302 290 323 307 275 273 274 272 274 272 267 257 238 219 223 220 211 202 232 231 190 230 219 241 248 253 274 171 226 328 264 226 228 219 208 182 198 158 168 151 140 115 140 137 120 112 108 104 97 89 79 69 64 63 61 45 29 84 44 29 63 70 25
331 316 336 348 301 286 286 285 292 311 314 274 282 276 232 175 117 80 26 341 257 222 268 255 270 304 291 238 244 254 257 256 252 254 250 247 237 232 211 204 203 167 192 223 246 255 302 247 259 273 303 338 333 231 256 269 255 259 207 170 191 163 101 96 111 128 135 141 120 112 97 108 110 90 70 64 61 61 61 64 40 37 67 47 59 79 106
305 305 304 298 296 285 283 284 281 282 272 269 233 240 12 17 338 310 323 330 314 226 241 278 280 254 269 277 249 243 228 233 234 228 232 213 222 197 225 187 215 175 188 192 212 238 224 250 251 257 251 34 31 287 247 242 266 270 74 55 79 118 127 123 119 122 129 145 133 97 111 101 92 109 113 89 74 64 71 57 61 63 74 84 82 68 64
294 297 300 294 293 293 289 284 281 272 263 290 305 297 284 269 257 260 277 289 305 234 251 266 268 298 280 295 311 307 303 284 253 221 261 162 245 149 228 170 193 204 156 215 183 224 192 228 121 272 167 117 204 213 268 249 256 168 166 97 101 82 99 113 124 125 133 125 117 142 144 124 114 109 107 96 88 77 77 73 66 71 82 97 111 100 87
292 294 294 297 295 292 289 286 285 284 274 269 272 248 239 230 232 226 215 240 269 263 252 257 268 261 274 298 286 272 237 229 225 126 269 174 154 152 215 47 123 195 163 195 155 240 188 233 207 219 31 256 185 249 242 241 257 276 174 146 124 110 91 106 116 124 108 107 102 109 118 118 111 105 100 98 97 96 95 98 94 85 79 90 97 106 108
285 286 288 288 291 293 290 282 284 253 263 256 256 253 260 192 175 166 172 195 190 201 206 225 244 286 284 276 272 308 348 328 296 123 241 289 118 230 133 178 32 265 283 178 248 187 245 202 159 208 221 121 182 228 231 234 218 230 135 168 150 132 116 103 130 115 110 111 111 117 122 124 123 120 119 123 113 114 109 106 105 101 99 95 97 99 103
298 293 291 290 295 290 283 250 227 256 242 248 261 27 114 135 136 142 177 210 262 313 274 267 240 242 260 281 293 0 343 287 302 285 222 44 15 358 348 95 233 211 69 319 270 202 194 343 17 236 166 197 220 210 234 219 198 186 188 163 159 160 173 160 132 120 127 123 128 129 127 126 121 128 129 122 122 118 118 120 114 99 99 100 100 96 90
297 295 295 292 279 256 243 247 199 210 245 4 33 71 100 116 99 118 130 245 215 236 263 291 271 259 269 294 318 311 343 289 54 303 301 200 125 306 74 41 220 334 285 220 207 254 217 114 227 271 231 236 236 199 211 194 224 179 149 155 174 171 168 126 129 128 131 136 139 139 137 131 132 130 125 129 131 130 131 123 126 125 119 112 106 101 101
301 302 291 267 247 254 254 201 215 183 151 152 232 150 210 233 177 175 166 221 198 185 218 211 248 259 283 282 257 355 321 282 46 294 83 316 349 305 235 131 44 93 231 227 234 122 103 101 193 241 255 247 260 246 195 172 188 192 185 174 180 187 174 153 140 136 135 137 144 158 142 137 136 139 133 133 130 126 125 125 125 124 116 114 112 111 105
284 268 243 240 257 250 289 34 353 131 156 164 203 287 200 196 220 207 199 192 171 213 205 222 243 227 231 241 257 263 251 300 304 298 292 328 37 277 323 258 30 357 246 264 255 125 210 253 247 224 247 240 240 230 201 177 176 175 179 192 184 186 167 164 160 158 165 175 173 164 147 149 146 143 132 127 115 115 126 127 126 128 126 124 122 119 117
238 238 240 223 220 303 349 309 317 295 210 203 191 257 249 181 212 228 147 188 209 222 184 234 224 224 216 228 248 262 199 205 232 258 341 137 232 253 234 110 111 251 253 217 216 167 239 212 196 223 249 224 227 213 201 191 182 187 175 186 186 184 171 167 169 149 125 126 144 140 137 144 144 141 138 133 130 131 133 128 128 132 135 132 131 130 131
210 234 240 283 7 327 294 313 297 241 227 212 205 212 237 217 207 270 233 216 221 220 186 239 186 199 206 227 229 260 19 25 14 108 153 139 280 30 187 185 24 279 257 242 20 356 233 275 253 236 241 195 207 201 200 201 194 175 172 173 178 164 155 133 129 139 139 134 133 131 139 146 143 141 136 136 136 138 139 138 140 141 135 135 138 137 137
351 292 311 301 270 269 276 235 221 212 221 263 281 216 203 250 211 198 218 250 221 225 181 180 223 222 211 194 214 223 250 55 347 40 353 256 358 328 95 128 194 254 251 93 138 186 186 236 234 242 212 226 224 206 190 200 190 175 172 167 161 147 127 122 132 151 153 153 144 144 143 147 142 138 136 139 139 138 140 142 141 142 142 139 136 138 143
295 269 251 277 276 241 188 263 199 202 209 176 146 279 237 232 207 238 218 199 264 262 302 274 336 239 246 193 208 180 192 196 247 112 236 184 196 263 211 176 90 229 223 70 237 203 213 236 243 251 230 183 143 217 217 198 182 168 164 152 142 136 134 140 148 159 163 153 147 147 141 141 145 148 141 139 135 134 140 146 146 144 140 139 141 139 136
271 261 247 207 239 219 111 220 156 184 225 204 156 205 199 224 221 200 241 227 177 251 218 187 193 278 298 318 333 117 110 45 37 120 175 135 137 162 245 234 210 151 109 238 221 230 231 232 232 236 182 205 206 163 158 125 142 138 141 140 142 139 135 137 144 149 154 145 143 146 142 140 136 136 141 141 141 143 147 149 150 146 140 139 141 144 145
291 215 236 270 255 334 80 284 225 203 213 201 228 238 217 226 223 212 236 3 341 102 84 352 357 341 343 237 287 335 296 92 313 282 223 129 242 204 216 257 22 328 245 247 229 238 221 244 217 211 176 189 193 200 169 179 145 149 146 141 143 137 133 149 166 171 170 172 170 156 151 154 162 156 147 148 147 147 151 155 154 152 150 148 150 151 156
214 214 160 198 287 287 207 271 140 214 226 225 220 222 249 265 290 303 43 129 268 99 105 86 33 262 187 229 309 192 283 162 183 233 245 187 250 222 258 339 199 265 254 252 259 266 258 271 263 164 151 143 120 57 24 64 124 141 142 151 156 150 147 161 176 181 179 174 172 165 160 168 173 168 154 153 149 152 154 155 156 158 154 152 153 154 161
281 277 249 293 285 255 214 241 211 217 237 223 227 237 241 265 283 288 354 25 68 359 36 90 96 25 51 323 289 156 152 75 156 309 343 247 231 312 92 244 239 211 247 245 244 249 255 17 344 86 124 127 127 118 97 28 62 115 145 154 161 165 152 167 179 180 183 177 165 167 165 174 176 170 146 149 152 155 156 156 158 161 158 158 151 149 160
242 274 198 209 225 213 217 232 260 264 249 253 249 251 264 266 263 28 21 332 0 7 20 304 210 54 121 162 256 282 79 127 201 233 188 344 10 327 257 241 234 241 225 261 255 282 108 207 150 142 125 95 136 147 137 129 99 110 132 154 171 160 156 171 181 182 177 177 174 173 175 175 171 161 147 153 154 157 158 159 158 158 150 146 146 155 163
271 289 221 247 249 257 246 225 220 238 254 258 258 249 248 241 138 142 153 69 4 1 118 77 4 338 298 290 81 332 254 165 242 197 156 188 194 217 192 237 221 237 216 224 241 83 154 224 185 182 126 189 153 252 154 160 162 190 203 180 171 163 164 180 190 179 177 180 178 177 180 174 164 155 143 147 150 156 157 155 153 152 151 151 153 160 158
223 258 242 257 291 263 275 295 269 263 255 269 3 2 13 26 35 340 348 275 175 200 321 147 163 204 110 268 242 219 205 171 243 222 207 222 229 255 236 259 250 274 336 2 39 254 309 13 124 120 187 196 162 201 227 231 203 209 203 180 172 172 177 185 194 177 172 174 180 183 176 165 163 161 155 156 152 148 148 150 148 148 150 153 157 157 155
222 232 244 239 252 272 355 322 342 331 326 327 321 320 1 0 133 206 309 295 247 207 134 220 314 260 176 197 97 213 233 136 205 218 218 240 199 236 238 266 341 0 333 329 337 274 123 237 317 43 76 49 27 19 343 338 325 286 214 170 170 172 181 190 193 159 136 128 141 159 182 176 172 158 144 140 140 144 145 147 146 148 151 156 159 156 157
236 231 242 232 236 259 270 280 282 271 273 281 290 293 274 287 27 157 222 257 244 232 220 133 173 115 347 206 222 281 113 164 243 230 234 227 248 281 9 344 310 312 328 359 333 315 333 29 61 25 1 322 326 342 310 303 282 276 283 163 161 159 168 186 171 138 132 128 126 115 73 348 322 158 139 142 144 147 150 153 151 151 153 156 158 158 158